| time (UTC) | temp F | wind direction | speed knots | gust knots | rain 1hr in | rain 24hr in | rain mn in | humidity % | barometer mb |
| 20260508114532 | 45 | 173 | 3.5 | 60.8 | 0.00 | 2.39 | 2.39 | 74 | 1019.7 |
| 20260508113035 | 45 | 166 | 5.2 | 95.6 | 0.00 | 2.39 | 2.39 | 74 | 1019.6 |
| 20260508111537 | 45 | 154 | 9.6 | 138.2 | 2.39 | 2.39 | 2.39 | 72 | 1019.5 |
| 20260508110032 | 46 | 245 | 18.2 | 152.1 | 2.39 | 2.39 | 2.39 | 71 | 1019.4 |
| 20260508104532 | 44 | 201 | 5.2 | 94.7 | 2.39 | 2.39 | 2.39 | 72 | 1019.5 |
| 20260508103035 | 44 | 230 | 6.1 | 48.7 | 2.39 | 2.39 | 0.00 | 72 | 1019.5 |
| 20260508101534 | 44 | 195 | 0.9 | 64.3 | 0.00 | 0.00 | 0.00 | 69 | 1019.6 |
| 20260508094533 | 47 | 228 | 7.8 | 86.0 | 0.00 | 0.00 | 0.00 | 61 | 1019.6 |
| 20260508093032 | 48 | 170 | 3.5 | 8.7 | 0.00 | 0.00 | 0.00 | 61 | 1019.5 |
| 20260508091535 | 48 | 145 | 4.3 | 9.6 | 0.00 | 0.00 | 0.00 | 60 | 1019.5 |
| 20260508084533 | 48 | 145 | 4.3 | 7.0 | 0.00 | 0.00 | 0.00 | 61 | 1019.5 |
| 20260508083142 | 47 | 149 | 3.5 | 7.8 | 0.00 | 0.00 | 0.00 | 62 | 1019.5 |
| 20260508081529 | 47 | 140 | 4.3 | 15.6 | 0.00 | 0.00 | 0.00 | 62 | 1019.5 |
| 20260508080035 | 49 | 166 | 1.7 | 3.5 | 0.00 | 0.00 | 0.00 | 59 | 1019.5 |
| 20260508073107 | 51 | 143 | 7.8 | 59.1 | 0.00 | 0.00 | 0.00 | 56 | 1019.5 |
| 20260508071536 | 51 | 142 | 5.2 | 25.2 | 0.00 | 0.00 | 0.00 | 54 | 1019.5 |
| 20260508070036 | 53 | 158 | 3.5 | 17.4 | 0.00 | 0.00 | 0.00 | 52 | 1019.6 |
| 20260508064644 | 54 | 147 | 4.3 | 8.7 | 0.00 | 0.00 | 0.00 | 50 | 1019.6 |
| 20260508063035 | 55 | 139 | 4.3 | 7.8 | 0.00 | 0.00 | 0.00 | 48 | 1019.7 |
| 20260508061532 | 55 | 132 | 4.3 | 6.1 | 0.00 | 0.00 | 0.00 | 47 | 1019.7 |
| 20260508060034 | 56 | 136 | 4.3 | 12.2 | 0.00 | 0.00 | 0.00 | 45 | 1019.8 |
| 20260508054536 | 57 | 141 | 3.5 | 7.0 | 0.00 | 0.00 | 0.00 | 43 | 1019.8 |
| 20260508053034 | 57 | 142 | 4.3 | 7.8 | 0.00 | 0.00 | 0.00 | 42 | 1019.8 |
| 20260508050146 | 58 | 146 | 5.2 | 8.7 | 0.00 | 0.00 | 0.00 | 40 | 1019.8 |
| 20260508044534 | 58 | 150 | 3.5 | 7.0 | 0.00 | 0.00 | 0.00 | 41 | 1019.7 |
| 20260508043029 | 58 | 157 | 3.5 | 9.6 | 0.00 | 0.00 | 0.00 | 40 | 1019.6 |
| 20260508041534 | 58 | 156 | 3.5 | 7.0 | 0.00 | 0.00 | 0.00 | 38 | 1019.5 |
| 20260508040033 | 59 | 171 | 3.5 | 7.0 | 0.00 | 0.00 | 0.00 | 36 | 1019.3 |
| 20260508034534 | 59 | 143 | 5.2 | 14.8 | 0.00 | 0.00 | 0.00 | 33 | 1019.1 |
| 20260508033030 | 60 | 152 | 4.3 | 8.7 | 0.00 | 0.00 | 0.00 | 31 | 1018.9 |
| 20260508031532 | 62 | 160 | 3.5 | 10.4 | 0.00 | 0.00 | 0.00 | 27 | 1018.8 |
| 20260508030143 | 62 | 164 | 3.5 | 7.0 | 0.00 | 0.00 | 0.00 | 26 | 1018.9 |
| 20260508024534 | 65 | 162 | 2.6 | 8.7 | 0.00 | 0.00 | 0.00 | 26 | 1018.8 |
| 20260508023034 | 66 | 169 | 6.1 | 20.9 | 0.00 | 0.00 | 0.00 | 25 | 1018.7 |
| 20260508021608 | 68 | 210 | 2.6 | 10.4 | 0.00 | 0.00 | 0.00 | 25 | 1018.7 |
| 20260508020034 | 69 | 193 | 3.5 | 16.5 | 0.00 | 0.00 | 0.00 | 24 | 1018.6 |
| 20260508013031 | 71 | 189 | 4.3 | 14.8 | 0.00 | 0.00 | 0.00 | 24 | 1018.6 |
| 20260508011607 | 72 | 223 | 6.1 | 16.5 | 0.00 | 0.00 | 0.00 | 23 | 1018.7 |
| 20260508010036 | 72 | 215 | 7.8 | 18.2 | 0.00 | 0.00 | 0.00 | 22 | 1018.7 |
| 20260508004651 | 72 | 215 | 5.2 | 15.6 | 0.00 | 0.00 | 0.00 | 21 | 1018.6 |
| 20260508003033 | 73 | 225 | 3.5 | 14.8 | 0.00 | 0.00 | 0.00 | 21 | 1018.5 |
| 20260508000038 | 74 | 239 | 7.8 | 18.2 | 0.00 | 0.00 | 0.00 | 20 | 1018.5 |
| 20260507234542 | 74 | 211 | 5.2 | 13.0 | 0.00 | 0.00 | 0.00 | 21 | 1018.5 |
| 20260507234536 | 75 | 230 | 4.3 | 15.6 | 0.00 | 0.00 | 0.00 | 21 | 1018.5 |
| 20260507231533 | 74 | 218 | 4.3 | 18.2 | 0.00 | 0.00 | 0.00 | 22 | 1018.7 |
| 20260507230029 | 74 | 213 | 6.1 | 15.6 | 0.00 | 0.00 | 0.00 | 22 | 1018.8 |
| 20260507224536 | 74 | 204 | 5.2 | 13.9 | 0.00 | 0.00 | 0.00 | 23 | 1018.8 |
| 20260507223106 | 73 | 196 | 6.1 | 11.3 | 0.00 | 0.00 | 0.00 | 23 | 1019.0 |
| 20260507221537 | 73 | 195 | 5.2 | 12.2 | 0.00 | 0.00 | 0.00 | 23 | 1019.2 |
| 20260507220038 | 73 | 194 | 5.2 | 13.0 | 0.00 | 0.00 | 0.00 | 24 | 1019.3 |
| 20260507214534 | 74 | 196 | 5.2 | 13.9 | 0.00 | 0.00 | 0.00 | 24 | 1019.4 |
| 20260507213037 | 73 | 190 | 4.3 | 13.9 | 0.00 | 0.00 | 0.00 | 26 | 1019.5 |
| 20260507204536 | 72 | 204 | 6.1 | 11.3 | 0.00 | 0.00 | 0.00 | 26 | 1019.8 |
| 20260507203106 | 72 | 190 | 6.1 | 13.0 | 0.00 | 0.00 | 0.00 | 26 | 1019.9 |
| 20260507201537 | 71 | 209 | 5.2 | 10.4 | 0.00 | 0.00 | 0.00 | 27 | 1020.1 |
| 20260507194535 | 70 | 202 | 5.2 | 10.4 | 0.00 | 0.00 | 0.00 | 29 | 1020.3 |
| 20260507193037 | 69 | 200 | 6.1 | 13.0 | 0.00 | 0.00 | 0.00 | 29 | 1020.5 |
| 20260507191535 | 69 | 203 | 6.1 | 11.3 | 0.00 | 0.00 | 0.00 | 31 | 1020.6 |
| 20260507190035 | 68 | 203 | 3.5 | 12.2 | 0.00 | 0.00 | 0.00 | 33 | 1020.6 |
| 20260507183147 | 66 | 205 | 4.3 | 9.6 | 0.00 | 0.00 | 0.00 | 36 | 1020.9 |
| 20260507181642 | 66 | 192 | 4.3 | 9.6 | 0.00 | 0.00 | 0.00 | 38 | 1021.0 |
| 20260507180106 | 65 | 193 | 4.3 | 7.8 | 0.00 | 0.00 | 0.00 | 39 | 1021.1 |
| 20260507174642 | 64 | 205 | 5.2 | 11.3 | 0.00 | 0.00 | 0.00 | 41 | 1021.3 |
| 20260507173033 | 63 | 211 | 4.3 | 11.3 | 0.00 | 0.00 | 0.00 | 41 | 1021.4 |
| 20260507171539 | 62 | 215 | 4.3 | 12.2 | 0.00 | 0.00 | 0.00 | 44 | 1021.5 |
| 20260507170035 | 61 | 223 | 5.2 | 10.4 | 0.00 | 0.00 | 0.00 | 46 | 1021.5 |
| 20260507164536 | 60 | 215 | 4.3 | 9.6 | 0.00 | 0.00 | 0.00 | 48 | 1021.6 |
| 20260507163037 | 60 | 207 | 5.2 | 13.9 | 0.00 | 0.00 | 0.00 | 48 | 1021.7 |
| 20260507161533 | 60 | 201 | 5.2 | 12.2 | 0.00 | 0.00 | 0.00 | 51 | 1021.8 |
| 20260507160037 | 59 | 216 | 4.3 | 9.6 | 0.00 | 0.00 | 0.00 | 52 | 1021.9 |
| 20260507154534 | 59 | 229 | 4.3 | 16.5 | 0.00 | 0.00 | 0.00 | 53 | 1021.9 |
| 20260507151536 | 58 | 233 | 3.5 | 10.4 | 0.00 | 0.00 | 0.00 | 56 | 1022.2 |
| 20260507150048 | 58 | 242 | 3.5 | 8.7 | 0.00 | 0.00 | 0.00 | 57 | 1022.2 |
| 20260507143037 | 55 | 258 | 2.6 | 9.6 | 0.00 | 0.00 | 0.00 | 67 | 1022.0 |
| 20260507141531 | 53 | 108 | 1.7 | 9.6 | 0.00 | 0.00 | 0.00 | 69 | 1021.9 |
| 20260507140035 | 52 | 217 | 2.6 | 31.3 | 0.00 | 0.00 | 0.00 | 70 | 1021.8 |
| 20260507134538 | 52 | 217 | 2.6 | 20.9 | 0.00 | 0.00 | 0.00 | 72 | 1021.8 |
| 20260507133032 | 53 | 197 | 2.6 | 11.3 | 0.00 | 0.00 | 0.00 | 72 | 1021.8 |
| 20260507131607 | 53 | 197 | 3.5 | 12.2 | 0.00 | 0.00 | 0.00 | 72 | 1021.9 |
| 20260507130031 | 53 | 186 | 4.3 | 12.2 | 0.00 | 0.00 | 0.00 | 72 | 1021.8 |
| 20260507124643 | 54 | 173 | 3.5 | 11.3 | 0.00 | 0.00 | 0.00 | 72 | 1021.9 |
| 20260507123107 | 54 | 156 | 4.3 | 19.1 | 0.00 | 0.00 | 0.00 | 73 | 1021.8 |
| 20260507121535 | 54 | 144 | 4.3 | 12.2 | 0.00 | 0.00 | 0.00 | 73 | 1021.8 |
| 20260507120031 | 54 | 144 | 6.1 | 18.2 | 0.00 | 0.00 | 0.00 | 73 | 1021.7 |